Location: Unspecified
(48.7670°N, 0.0000°E)
Time: 08:43:51
(UTC+00:00)

A-11 Canister half - Pass Details

Date: 30 June 2019
Orbit: 1526 x 1683 km, 47.3° (Epoch: 24 July)

Event Time Altitude Azimuth Distance (km) Brightness Sun altitude
Exits shadow 00:02:04 13° 139° (SE) 3,584 10.5 -18.0°
Maximum altitude 00:04:16 14° 125° (SE) 3,488 10.5 -18.0°
Drops below altitude 10° 00:08:25 10° 98° (E) 3,757 11.0 -18.0°
Sets 00:13:32 0° 75° (ENE) 4,717 11.8 -18.0°
